Time,TemperatureF,DewpointF,PressureIn,WindDirection,WindDirectionDegrees,WindSpeedMPH,WindSpeedGustMPH,Humidity,HourlyPrecipIn,Conditions,Clouds,dailyrainin,SolarRadiationWatts/m^2,SoftwareType,DateUTC
2013-04-01 00:02:00,73.2,29.7,-100.00,South,176,3.0,10.0,20,0.00,,,0.00,0.0,meteohub,2013-04-01 04:02:00,
2013-04-01 00:07:00,73.2,29.7,-100.00,South,180,0.0,10.0,20,0.00,,,0.00,0.0,meteohub,2013-04-01 04:07:00,
2013-04-01 00:12:00,73.0,29.7,-100.00,South,173,0.0,10.0,20,0.00,,,0.00,0.0,meteohub,2013-04-01 04:12:00,
2013-04-01 00:17:00,73.0,28.4,-100.00,South,186,2.0,6.0,19,0.00,,,0.00,0.0,meteohub,2013-04-01 04:17:00,
2013-04-01 00:22:00,73.0,28.4,-100.00,SSW,199,2.0,6.0,19,0.00,,,0.00,0.0,meteohub,2013-04-01 04:22:00,
2013-04-01 00:32:00,72.9,28.2,-100.00,South,191,4.0,6.0,19,0.00,,,0.00,0.0,meteohub,2013-04-01 04:32:00,
2013-04-01 00:37:00,72.9,27.0,-100.00,South,190,1.0,5.0,18,0.00,,,0.00,0.0,meteohub,2013-04-01 04:37:00,
2013-04-01 00:42:00,72.7,26.8,-100.00,South,190,0.0,5.0,18,0.00,,,0.00,0.0,meteohub,2013-04-01 04:42:00,
2013-04-01 00:47:00,72.7,26.8,-100.00,South,189,0.0,5.0,18,0.00,,,0.00,0.0,meteohub,2013-04-01 04:47:00,
2013-04-01 00:52:00,72.7,25.3,-100.00,South,188,2.0,5.0,17,0.00,,,0.00,0.0,meteohub,2013-04-01 04:52:00,
2013-04-01 01:02:00,72.7,25.3,-100.00,South,182,0.0,5.0,17,0.00,,,0.00,0.0,meteohub,2013-04-01 05:02:00,
2013-04-01 01:07:00,72.7,25.3,-100.00,South,186,0.0,5.0,17,0.00,,,0.00,0.0,meteohub,2013-04-01 05:07:00,
2013-04-01 01:17:00,73.0,25.7,-100.00,South,188,1.0,5.0,17,0.00,,,0.00,0.0,meteohub,2013-04-01 05:17:00,
2013-04-01 01:22:00,73.0,25.7,-100.00,South,188,4.0,5.0,17,0.00,,,0.00,0.0,meteohub,2013-04-01 05:22:00,
2013-04-01 01:27:00,73.0,25.7,-100.00,South,187,4.0,5.0,17,0.00,,,0.00,0.0,meteohub,2013-04-01 05:27:00,
2013-04-01 01:32:00,73.0,25.7,-100.00,South,182,0.0,6.0,17,0.00,,,0.00,0.0,meteohub,2013-04-01 05:32:00,
2013-04-01 01:37:00,73.0,24.3,-100.00,South,182,0.0,6.0,16,0.00,,,0.00,0.0,meteohub,2013-04-01 05:37:00,
2013-04-01 01:42:00,73.2,24.3,-100.00,South,176,2.0,5.0,16,0.00,,,0.00,0.0,meteohub,2013-04-01 05:42:00,
2013-04-01 01:47:00,73.2,24.3,-100.00,South,181,3.0,5.0,16,0.00,,,0.00,0.0,meteohub,2013-04-01 05:47:00,
2013-04-01 01:52:00,73.6,24.6,-100.00,SSE,161,3.0,5.0,16,0.00,,,0.00,0.0,meteohub,2013-04-01 05:52:00,
2013-04-01 01:57:00,73.6,24.6,-100.00,SSE,157,3.0,5.0,16,0.00,,,0.00,0.0,meteohub,2013-04-01 05:57:00,
2013-04-01 02:02:00,73.8,24.8,-100.00,South,178,2.0,9.0,16,0.00,,,0.00,0.0,meteohub,2013-04-01 06:02:00,
2013-04-01 02:12:00,73.9,25.0,-100.00,SSW,198,5.0,11.0,16,0.00,,,0.00,0.0,meteohub,2013-04-01 06:12:00,
2013-04-01 02:17:00,73.9,25.0,-100.00,South,185,3.0,11.0,16,0.00,,,0.00,0.0,meteohub,2013-04-01 06:17:00,
2013-04-01 02:27:00,74.3,25.2,-100.00,SSW,194,5.0,11.0,16,0.00,,,0.00,0.0,meteohub,2013-04-01 06:27:00,
2013-04-01 02:32:00,74.5,25.3,-100.00,SSW,199,9.0,10.0,16,0.00,,,0.00,0.0,meteohub,2013-04-01 06:32:00,
2013-04-01 02:42:00,74.7,25.5,-100.00,South,188,7.0,15.0,16,0.00,,,0.00,0.0,meteohub,2013-04-01 06:42:00,
2013-04-01 02:47:00,74.5,26.8,-100.00,SSW,194,2.0,15.0,17,0.00,,,0.00,0.0,meteohub,2013-04-01 06:47:00,
2013-04-01 02:52:00,74.5,26.8,-100.00,SSE,159,5.0,15.0,17,0.00,,,0.00,0.0,meteohub,2013-04-01 06:52:00,
2013-04-01 02:57:00,74.5,25.3,-100.00,SSW,199,1.0,15.0,16,0.00,,,0.00,0.0,meteohub,2013-04-01 06:57:00,
2013-04-01 03:02:00,74.7,25.5,-100.00,South,191,10.0,14.0,16,0.00,,,0.00,0.0,meteohub,2013-04-01 07:02:00,
2013-04-01 03:12:00,74.7,25.5,-100.00,South,171,5.0,18.0,16,0.00,,,0.00,0.0,meteohub,2013-04-01 07:12:00,
2013-04-01 03:22:00,74.5,25.3,-100.00,South,188,2.0,18.0,16,0.00,,,0.00,0.0,meteohub,2013-04-01 07:22:00,
2013-04-01 03:32:00,74.5,25.3,-100.00,SSW,213,10.0,16.0,16,0.00,,,0.00,0.0,meteohub,2013-04-01 07:32:00,
2013-04-01 03:37:00,74.3,25.2,-100.00,South,190,0.0,16.0,16,0.00,,,0.00,0.0,meteohub,2013-04-01 07:37:00,
2013-04-01 03:42:00,74.1,25.0,-100.00,SSW,192,6.0,12.0,16,0.00,,,0.00,0.0,meteohub,2013-04-01 07:42:00,
2013-04-01 03:47:00,74.1,25.0,-100.00,SSW,192,4.0,12.0,16,0.00,,,0.00,0.0,meteohub,2013-04-01 07:47:00,
2013-04-01 03:57:00,73.9,25.0,-100.00,South,176,4.0,12.0,16,0.00,,,0.00,0.0,meteohub,2013-04-01 07:57:00,
2013-04-01 04:02:00,73.9,25.0,-100.00,SSW,192,4.0,11.0,16,0.00,,,0.00,0.0,meteohub,2013-04-01 08:02:00,
2013-04-01 04:13:00,73.9,25.0,-100.00,SSW,201,5.0,10.0,16,0.00,,,0.00,0.0,meteohub,2013-04-01 08:13:00,
2013-04-01 04:22:00,73.9,23.4,-100.00,South,173,4.0,10.0,15,0.00,,,0.00,0.0,meteohub,2013-04-01 08:22:00,
2013-04-01 04:27:00,73.9,23.4,-100.00,SW,217,8.0,10.0,15,0.00,,,0.00,0.0,meteohub,2013-04-01 08:27:00,
2013-04-01 04:37:00,74.1,23.5,-100.00,SSW,201,6.0,12.0,15,0.00,,,0.00,0.0,meteohub,2013-04-01 08:37:00,
2013-04-01 04:42:00,74.1,23.5,-100.00,SSW,199,3.0,13.0,15,0.00,,,0.00,0.0,meteohub,2013-04-01 08:42:00,
2013-04-01 04:47:00,74.1,23.5,-100.00,SSW,194,1.0,13.0,15,0.00,,,0.00,0.0,meteohub,2013-04-01 08:47:00,
2013-04-01 04:52:00,73.9,23.4,-100.00,SSW,196,5.0,13.0,15,0.00,,,0.00,0.0,meteohub,2013-04-01 08:52:00,
2013-04-01 04:57:00,73.8,23.2,-100.00,SSW,205,5.0,13.0,15,0.00,,,0.00,0.0,meteohub,2013-04-01 08:57:00,
2013-04-01 05:02:00,73.8,23.2,-100.00,SSW,204,4.0,9.0,15,0.00,,,0.00,0.0,meteohub,2013-04-01 09:02:00,
2013-04-01 05:07:00,73.6,23.0,-100.00,SSW,203,5.0,9.0,15,0.00,,,0.00,0.0,meteohub,2013-04-01 09:07:00,
2013-04-01 05:12:00,73.6,24.6,-100.00,SSW,203,3.0,7.0,16,0.00,,,0.00,0.0,meteohub,2013-04-01 09:12:00,
2013-04-01 05:17:00,73.6,24.6,-100.00,South,190,2.0,7.0,16,0.00,,,0.00,0.0,meteohub,2013-04-01 09:17:00,
2013-04-01 05:22:00,73.4,24.4,-100.00,SSW,194,2.0,7.0,16,0.00,,,0.00,0.0,meteohub,2013-04-01 09:22:00,
2013-04-01 05:32:00,73.4,23.0,-100.00,SSW,203,0.0,7.0,15,0.00,,,0.00,0.0,meteohub,2013-04-01 09:32:00,
2013-04-01 05:37:00,73.2,22.8,-100.00,SSW,206,2.0,7.0,15,0.00,,,0.00,0.0,meteohub,2013-04-01 09:37:00,
2013-04-01 05:42:00,73.2,22.8,-100.00,SSW,193,5.0,7.0,15,0.00,,,0.00,0.0,meteohub,2013-04-01 09:42:00,
2013-04-01 05:47:00,73.2,22.8,-100.00,SSW,200,3.0,7.0,15,0.00,,,0.00,0.0,meteohub,2013-04-01 09:47:00,
2013-04-01 05:57:00,73.0,22.6,-100.00,SSW,198,4.0,9.0,15,0.00,,,0.00,0.0,meteohub,2013-04-01 09:57:00,
2013-04-01 06:02:00,73.0,24.3,-100.00,SW,215,4.0,9.0,16,0.00,,,0.00,0.0,meteohub,2013-04-01 10:02:00,
2013-04-01 06:07:00,73.0,24.3,-100.00,SSW,199,6.0,11.0,16,0.00,,,0.00,0.0,meteohub,2013-04-01 10:07:00,
2013-04-01 06:17:00,72.9,24.1,-100.00,SSW,196,3.0,11.0,16,0.00,,,0.00,0.0,meteohub,2013-04-01 10:17:00,
2013-04-01 06:22:00,72.9,24.1,-100.00,SSW,202,5.0,11.0,16,0.00,,,0.00,0.0,meteohub,2013-04-01 10:22:00,
2013-04-01 06:27:00,72.9,24.1,-100.00,SSW,198,4.0,11.0,16,0.00,,,0.00,0.0,meteohub,2013-04-01 10:27:00,
2013-04-01 06:32:00,73.0,24.3,-100.00,SSW,209,2.0,9.0,16,0.00,,,0.00,0.0,meteohub,2013-04-01 10:32:00,
2013-04-01 06:37:00,73.0,24.3,-100.00,SSW,198,3.0,9.0,16,0.00,,,0.00,0.0,meteohub,2013-04-01 10:37:00,
2013-04-01 06:42:00,73.0,24.3,-100.00,SSW,199,5.0,9.0,16,0.00,,,0.00,0.0,meteohub,2013-04-01 10:42:00,
2013-04-01 06:47:00,73.0,24.3,-100.00,SSW,202,1.0,9.0,16,0.00,,,0.00,0.0,meteohub,2013-04-01 10:47:00,
2013-04-01 06:52:00,73.0,24.3,-100.00,SSW,195,4.0,9.0,16,0.00,,,0.00,0.0,meteohub,2013-04-01 10:52:00,
2013-04-01 07:02:00,72.9,24.1,-100.00,SSW,207,2.0,7.0,16,0.00,,,0.00,0.0,meteohub,2013-04-01 11:02:00,
2013-04-01 07:07:00,72.9,24.1,-100.00,SSW,206,0.0,7.0,16,0.00,,,0.00,0.0,meteohub,2013-04-01 11:07:00,
2013-04-01 07:17:00,73.0,24.3,-100.00,South,190,1.0,7.0,16,0.00,,,0.00,7.0,meteohub,2013-04-01 11:17:00,
2013-04-01 07:27:00,73.0,24.3,-100.00,South,191,1.0,6.0,16,0.00,,,0.00,12.0,meteohub,2013-04-01 11:27:00,
2013-04-01 07:32:00,73.2,24.3,-100.00,SSW,205,0.0,6.0,16,0.00,,,0.00,19.0,meteohub,2013-04-01 11:32:00,
2013-04-01 07:42:00,73.2,24.3,-100.00,SSW,205,0.0,6.0,16,0.00,,,0.00,44.0,meteohub,2013-04-01 11:42:00,
2013-04-01 07:52:00,73.0,24.3,-100.00,SSW,205,0.0,3.0,16,0.00,,,0.00,42.0,meteohub,2013-04-01 11:52:00,
2013-04-01 08:02:00,73.0,24.3,-100.00,SSW,205,0.0,1.0,16,0.00,,,0.00,23.0,meteohub,2013-04-01 12:02:00,
2013-04-01 08:07:00,72.9,24.1,-100.00,SSW,205,0.0,1.0,16,0.00,,,0.00,23.0,meteohub,2013-04-01 12:07:00,
2013-04-01 08:12:00,72.7,23.9,-100.00,SSW,205,0.0,1.0,16,0.00,,,0.00,30.0,meteohub,2013-04-01 12:12:00,
2013-04-01 08:17:00,72.7,23.9,-100.00,SSW,205,0.0,1.0,16,0.00,,,0.00,40.0,meteohub,2013-04-01 12:17:00,
2013-04-01 08:27:00,72.7,23.9,-100.00,SSW,205,0.0,2.0,16,0.00,,,0.00,188.0,meteohub,2013-04-01 12:27:00,
2013-04-01 08:32:00,72.9,24.1,-100.00,SSW,205,1.0,2.0,16,0.00,,,0.00,243.0,meteohub,2013-04-01 12:32:00,
2013-04-01 08:37:00,73.0,24.3,-100.00,SSW,205,0.0,1.0,16,0.00,,,0.00,253.0,meteohub,2013-04-01 12:37:00,
2013-04-01 08:42:00,73.4,24.4,-100.00,SSW,205,0.0,1.0,16,0.00,,,0.00,139.0,meteohub,2013-04-01 12:42:00,
2013-04-01 08:47:00,73.8,24.8,-100.00,SSW,206,1.0,4.0,16,0.00,,,0.00,118.0,meteohub,2013-04-01 12:47:00,
2013-04-01 08:57:00,74.8,25.7,-100.00,SSW,206,3.0,5.0,16,0.00,,,0.00,353.0,meteohub,2013-04-01 12:57:00,
2013-04-01 09:07:00,76.3,25.2,-100.00,SSW,210,1.0,12.0,15,0.00,,,0.00,501.0,meteohub,2013-04-01 13:07:00,
2013-04-01 09:12:00,76.8,24.1,-100.00,WSW,251,0.0,12.0,14,0.00,,,0.00,496.0,meteohub,2013-04-01 13:12:00,
2013-04-01 09:17:00,77.2,25.9,-100.00,SSW,210,7.0,12.0,15,0.00,,,0.00,457.0,meteohub,2013-04-01 13:17:00,
2013-04-01 09:22:00,77.7,26.4,-100.00,SSW,211,6.0,12.0,15,0.00,,,0.00,425.0,meteohub,2013-04-01 13:22:00,
2013-04-01 09:27:00,78.3,26.8,-100.00,SW,225,5.0,13.0,15,0.00,,,0.00,566.0,meteohub,2013-04-01 13:27:00,
2013-04-01 09:37:00,79.2,30.6,-100.00,SSW,210,10.0,13.0,17,0.00,,,0.00,577.0,meteohub,2013-04-01 13:37:00,
2013-04-01 09:47:00,79.3,33.4,-100.00,South,184,3.0,15.0,19,0.00,,,0.00,638.0,meteohub,2013-04-01 13:47:00,
2013-04-01 09:52:00,79.5,33.6,-100.00,SW,219,6.0,15.0,19,0.00,,,0.00,631.0,meteohub,2013-04-01 13:52:00,
2013-04-01 09:57:00,79.5,38.5,-100.00,SW,235,5.0,17.0,23,0.00,,,0.00,686.0,meteohub,2013-04-01 13:57:00,
2013-04-01 10:07:00,79.7,42.8,-100.00,SW,224,10.0,21.0,27,0.00,,,0.00,868.0,meteohub,2013-04-01 14:07:00,
2013-04-01 10:12:00,79.9,47.3,-100.00,SSW,211,9.0,21.0,32,0.00,,,0.00,390.0,meteohub,2013-04-01 14:12:00,
2013-04-01 10:17:00,79.9,45.7,-100.00,SW,223,3.0,18.0,30,0.00,,,0.00,334.0,meteohub,2013-04-01 14:17:00,
2013-04-01 10:22:00,79.7,47.3,-100.00,WSW,249,7.0,18.0,32,0.00,,,0.00,752.0,meteohub,2013-04-01 14:22:00,
2013-04-01 10:28:00,79.2,49.1,-100.00,West,269,12.0,17.0,35,0.00,,,0.00,320.0,meteohub,2013-04-01 14:28:00,
2013-04-01 10:37:00,79.2,50.7,-100.00,SSW,212,7.0,17.0,37,0.00,,,0.00,719.0,meteohub,2013-04-01 14:37:00,
2013-04-01 10:42:00,79.5,55.0,-100.00,SSW,196,10.0,17.0,43,0.00,,,0.00,223.0,meteohub,2013-04-01 14:42:00,
2013-04-01 10:47:00,79.3,54.9,-100.00,WSW,248,9.0,17.0,43,0.00,,,0.00,253.0,meteohub,2013-04-01 14:47:00,
2013-04-01 10:52:00,79.3,54.3,-100.00,SW,215,11.0,17.0,42,0.00,,,0.00,831.0,meteohub,2013-04-01 14:52:00,
2013-04-01 10:57:00,80.1,60.8,-100.00,SSW,200,9.0,21.0,52,0.00,,,0.00,837.0,meteohub,2013-04-01 14:57:00,
2013-04-01 11:02:00,81.1,62.4,-100.00,SSW,213,9.0,21.0,53,0.00,,,0.00,937.0,meteohub,2013-04-01 15:02:00,
2013-04-01 11:12:00,81.7,63.5,-100.00,SSW,202,12.0,20.0,54,0.00,,,0.00,1030.0,meteohub,2013-04-01 15:12:00,
2013-04-01 11:17:00,81.7,63.9,-100.00,WNW,282,6.0,20.0,55,0.00,,,0.00,287.0,meteohub,2013-04-01 15:17:00,
2013-04-01 11:27:00,81.1,63.5,-100.00,SW,234,9.0,16.0,55,0.00,,,0.00,243.0,meteohub,2013-04-01 15:27:00,
2013-04-01 11:32:00,81.1,63.0,-100.00,West,264,4.0,16.0,54,0.00,,,0.00,1014.0,meteohub,2013-04-01 15:32:00,
2013-04-01 11:42:00,81.1,63.5,-100.00,WNW,288,9.0,15.0,55,0.00,,,0.00,229.0,meteohub,2013-04-01 15:42:00,
2013-04-01 11:47:00,81.9,63.5,-100.00,SSW,209,1.0,20.0,54,0.00,,,0.00,949.0,meteohub,2013-04-01 15:47:00,
2013-04-01 11:57:00,82.0,63.7,-100.00,WSW,244,13.0,17.0,54,0.00,,,0.00,965.0,meteohub,2013-04-01 15:57:00,
2013-04-01 12:02:00,82.6,64.2,-100.00,WSW,240,5.0,17.0,54,0.00,,,0.00,942.0,meteohub,2013-04-01 16:02:00,
2013-04-01 12:07:00,82.4,64.0,-100.00,WSW,241,5.0,18.0,54,0.00,,,0.00,267.0,meteohub,2013-04-01 16:07:00,
2013-04-01 12:12:00,82.4,64.0,-100.00,West,279,4.0,18.0,54,0.00,,,0.00,1049.0,meteohub,2013-04-01 16:12:00,
2013-04-01 12:17:00,83.5,64.6,-100.00,SW,223,15.0,20.0,53,0.00,,,0.00,1056.0,meteohub,2013-04-01 16:17:00,
2013-04-01 12:27:00,83.1,63.7,-100.00,West,267,5.0,20.0,52,0.00,,,0.00,318.0,meteohub,2013-04-01 16:27:00,
2013-04-01 12:32:00,82.6,62.6,-100.00,WSW,245,4.0,17.0,51,0.00,,,0.00,264.0,meteohub,2013-04-01 16:32:00,
2013-04-01 12:42:00,81.9,63.5,-100.00,West,273,10.0,19.0,54,0.00,,,0.00,1058.0,meteohub,2013-04-01 16:42:00,
2013-04-01 12:52:00,82.9,64.0,-100.00,SW,226,9.0,19.0,53,0.00,,,0.00,993.0,meteohub,2013-04-01 16:52:00,
2013-04-01 12:58:00,83.1,64.2,-100.00,NW,307,6.0,17.0,53,0.00,,,0.00,1013.0,meteohub,2013-04-01 16:58:00,
2013-04-01 13:07:00,83.7,64.8,-100.00,SSW,212,5.0,15.0,53,0.00,,,0.00,1007.0,meteohub,2013-04-01 17:07:00,
2013-04-01 13:12:00,84.0,65.1,-100.00,SW,224,5.0,15.0,53,0.00,,,0.00,981.0,meteohub,2013-04-01 17:12:00,
2013-04-01 13:22:00,84.7,65.7,-100.00,WSW,244,6.0,16.0,53,0.00,,,0.00,1107.0,meteohub,2013-04-01 17:22:00,
2013-04-01 13:27:00,84.7,65.7,-100.00,SW,223,16.0,16.0,53,0.00,,,0.00,1048.0,meteohub,2013-04-01 17:27:00,
2013-04-01 13:37:00,85.3,64.6,-100.00,SW,219,7.0,18.0,50,0.00,,,0.00,1099.0,meteohub,2013-04-01 17:37:00,
2013-04-01 13:42:00,85.5,64.0,-100.00,West,259,9.0,18.0,49,0.00,,,0.00,1041.0,meteohub,2013-04-01 17:42:00,
2013-04-01 13:47:00,85.8,64.4,-100.00,SW,227,12.0,16.0,49,0.00,,,0.00,1065.0,meteohub,2013-04-01 17:47:00,
2013-04-01 13:52:00,86.5,63.9,-100.00,WSW,257,13.0,16.0,47,0.00,,,0.00,1025.0,meteohub,2013-04-01 17:52:00,
2013-04-01 14:02:00,86.5,64.6,-100.00,WSW,254,11.0,17.0,48,0.00,,,0.00,976.0,meteohub,2013-04-01 18:02:00,
2013-04-01 14:07:00,86.5,62.6,-100.00,SW,231,11.0,18.0,45,0.00,,,0.00,972.0,meteohub,2013-04-01 18:07:00,
2013-04-01 14:12:00,86.2,63.5,-100.00,WNW,283,9.0,18.0,47,0.00,,,0.00,979.0,meteohub,2013-04-01 18:12:00,
2013-04-01 14:22:00,86.5,63.9,-100.00,WNW,289,14.0,20.0,47,0.00,,,0.00,1028.0,meteohub,2013-04-01 18:22:00,
2013-04-01 14:27:00,87.3,63.3,-100.00,WSW,249,7.0,17.0,45,0.00,,,0.00,1025.0,meteohub,2013-04-01 18:27:00,
2013-04-01 14:32:00,87.4,62.8,-100.00,SW,224,10.0,17.0,44,0.00,,,0.00,1118.0,meteohub,2013-04-01 18:32:00,
2013-04-01 14:37:00,86.9,61.7,-100.00,SW,236,7.0,19.0,43,0.00,,,0.00,1062.0,meteohub,2013-04-01 18:37:00,
2013-04-01 14:42:00,87.1,61.9,-100.00,West,267,8.0,19.0,43,0.00,,,0.00,287.0,meteohub,2013-04-01 18:42:00,
2013-04-01 14:47:00,86.4,61.9,-100.00,SW,218,5.0,19.0,44,0.00,,,0.00,352.0,meteohub,2013-04-01 18:47:00,
2013-04-01 14:52:00,86.2,62.4,-100.00,NW,319,10.0,19.0,45,0.00,,,0.00,302.0,meteohub,2013-04-01 18:52:00,
2013-04-01 15:02:00,86.2,62.4,-100.00,WNW,288,6.0,16.0,45,0.00,,,0.00,986.0,meteohub,2013-04-01 19:02:00,
2013-04-01 15:12:00,86.5,62.1,-100.00,SW,234,3.0,19.0,44,0.00,,,0.00,320.0,meteohub,2013-04-01 19:12:00,
2013-04-01 15:17:00,87.1,62.6,-100.00,WNW,296,5.0,19.0,44,0.00,,,0.00,988.0,meteohub,2013-04-01 19:17:00,
2013-04-01 15:22:00,88.2,62.2,-100.00,WNW,296,12.0,19.0,42,0.00,,,0.00,912.0,meteohub,2013-04-01 19:22:00,
2013-04-01 15:27:00,88.5,61.9,-100.00,West,279,11.0,16.0,41,0.00,,,0.00,970.0,meteohub,2013-04-01 19:27:00,
2013-04-01 15:32:00,89.2,62.4,-100.00,West,263,9.0,16.0,41,0.00,,,0.00,925.0,meteohub,2013-04-01 19:32:00,
2013-04-01 15:37:00,89.1,61.5,-100.00,WNW,294,9.0,16.0,40,0.00,,,0.00,863.0,meteohub,2013-04-01 19:37:00,
2013-04-01 15:42:00,88.5,61.9,-100.00,WNW,296,7.0,16.0,41,0.00,,,0.00,861.0,meteohub,2013-04-01 19:42:00,
2013-04-01 15:47:00,88.3,61.7,-100.00,NNW,340,9.0,17.0,41,0.00,,,0.00,211.0,meteohub,2013-04-01 19:47:00,
2013-04-01 15:52:00,87.3,60.6,-100.00,NW,317,6.0,17.0,41,0.00,,,0.00,229.0,meteohub,2013-04-01 19:52:00,
2013-04-01 15:57:00,86.7,61.5,-100.00,WNW,290,5.0,17.0,43,0.00,,,0.00,223.0,meteohub,2013-04-01 19:57:00,
2013-04-01 16:07:00,86.2,61.0,-100.00,NW,314,5.0,14.0,43,0.00,,,0.00,211.0,meteohub,2013-04-01 20:07:00,
2013-04-01 16:12:00,85.8,60.8,-100.00,NW,325,11.0,14.0,43,0.00,,,0.00,288.0,meteohub,2013-04-01 20:12:00,
2013-04-01 16:22:00,86.2,61.7,-100.00,NW,309,0.0,14.0,44,0.00,,,0.00,209.0,meteohub,2013-04-01 20:22:00,
2013-04-01 16:27:00,86.5,62.1,-100.00,WNW,292,2.0,12.0,44,0.00,,,0.00,301.0,meteohub,2013-04-01 20:27:00,
2013-04-01 16:32:00,87.1,62.6,-100.00,WNW,293,6.0,12.0,44,0.00,,,0.00,299.0,meteohub,2013-04-01 20:32:00,
2013-04-01 16:37:00,87.1,62.6,-100.00,NW,321,4.0,14.0,44,0.00,,,0.00,824.0,meteohub,2013-04-01 20:37:00,
2013-04-01 16:42:00,87.8,62.6,-100.00,NW,322,6.0,14.0,43,0.00,,,0.00,232.0,meteohub,2013-04-01 20:42:00,
2013-04-01 16:52:00,87.1,63.1,-100.00,SSW,209,3.0,13.0,45,0.00,,,0.00,197.0,meteohub,2013-04-01 20:52:00,
2013-04-01 16:57:00,84.4,65.8,-100.00,SSW,211,5.0,9.0,54,0.00,,,0.00,204.0,meteohub,2013-04-01 20:57:00,
2013-04-01 17:02:00,82.0,64.2,-100.00,SSW,203,13.0,13.0,55,0.00,,,0.00,281.0,meteohub,2013-04-01 21:02:00,
2013-04-01 17:07:00,80.4,62.2,-100.00,SSW,202,9.0,18.0,54,0.00,,,0.00,255.0,meteohub,2013-04-01 21:07:00,
2013-04-01 17:17:00,79.2,59.5,-100.00,SSW,205,12.0,18.0,51,0.00,,,0.00,188.0,meteohub,2013-04-01 21:17:00,
2013-04-01 17:22:00,77.4,55.6,-100.00,South,175,6.0,18.0,47,0.00,,,0.00,86.0,meteohub,2013-04-01 21:22:00,
2013-04-01 17:27:00,77.5,55.0,-100.00,SSW,198,8.0,20.0,46,0.00,,,0.00,93.0,meteohub,2013-04-01 21:27:00,
2013-04-01 17:32:00,77.4,54.3,-100.00,South,169,6.0,20.0,45,0.00,,,0.00,111.0,meteohub,2013-04-01 21:32:00,
2013-04-01 17:37:00,76.6,52.5,-100.00,South,171,8.0,19.0,43,0.00,,,0.00,114.0,meteohub,2013-04-01 21:37:00,
2013-04-01 17:42:00,76.5,52.9,-100.00,SSW,203,7.0,19.0,44,0.00,,,0.00,98.0,meteohub,2013-04-01 21:42:00,
2013-04-01 17:47:00,76.6,53.8,-100.00,SSW,194,6.0,18.0,45,0.00,,,0.00,79.0,meteohub,2013-04-01 21:47:00,
2013-04-01 17:57:00,76.6,57.2,-100.00,South,169,4.0,19.0,51,0.00,,,0.00,83.0,meteohub,2013-04-01 21:57:00,
2013-04-01 18:02:00,76.8,59.0,-100.00,SSW,211,15.0,19.0,54,0.00,,,0.00,77.0,meteohub,2013-04-01 22:02:00,
2013-04-01 18:07:00,77.2,59.7,-100.00,SSW,195,12.0,20.0,55,0.00,,,0.00,97.0,meteohub,2013-04-01 22:07:00,
2013-04-01 18:12:00,77.7,60.3,-100.00,SSW,194,6.0,20.0,55,0.00,,,0.00,287.0,meteohub,2013-04-01 22:12:00,
2013-04-01 18:17:00,78.6,61.2,-100.00,South,182,6.0,23.0,55,0.00,,,0.00,308.0,meteohub,2013-04-01 22:17:00,
2013-04-01 18:22:00,79.0,61.5,-100.00,SSE,168,3.0,23.0,55,0.00,,,0.00,134.0,meteohub,2013-04-01 22:22:00,
2013-04-01 18:32:00,79.2,62.1,-100.00,SSW,203,7.0,11.0,56,0.00,,,0.00,195.0,meteohub,2013-04-01 22:32:00,
2013-04-01 18:37:00,79.2,62.1,-100.00,South,188,6.0,11.0,56,0.00,,,0.00,206.0,meteohub,2013-04-01 22:37:00,
2013-04-01 18:42:00,79.2,62.1,-100.00,SSW,200,2.0,12.0,56,0.00,,,0.00,155.0,meteohub,2013-04-01 22:42:00,
2013-04-01 18:52:00,78.6,61.2,-100.00,SSW,202,1.0,12.0,55,0.00,,,0.00,102.0,meteohub,2013-04-01 22:52:00,
2013-04-01 18:57:00,78.6,61.2,-100.00,SSE,153,3.0,11.0,55,0.00,,,0.00,95.0,meteohub,2013-04-01 22:57:00,
2013-04-01 19:07:00,78.6,61.2,-100.00,SSW,195,1.0,12.0,55,0.00,,,0.00,51.0,meteohub,2013-04-01 23:07:00,
2013-04-01 19:12:00,78.8,61.3,-100.00,SSW,195,4.0,12.0,55,0.00,,,0.00,37.0,meteohub,2013-04-01 23:12:00,
2013-04-01 19:17:00,79.0,61.5,-100.00,South,178,4.0,12.0,55,0.00,,,0.00,28.0,meteohub,2013-04-01 23:17:00,
2013-04-01 19:22:00,79.0,61.5,-100.00,SSW,208,2.0,12.0,55,0.00,,,0.00,21.0,meteohub,2013-04-01 23:22:00,
2013-04-01 19:27:00,78.8,61.3,-100.00,South,186,3.0,10.0,55,0.00,,,0.00,14.0,meteohub,2013-04-01 23:27:00,
2013-04-01 19:37:00,78.3,60.8,-100.00,South,191,0.0,9.0,55,0.00,,,0.00,5.0,meteohub,2013-04-01 23:37:00,
2013-04-01 19:42:00,77.7,59.7,-100.00,SSW,194,1.0,9.0,54,0.00,,,0.00,0.0,meteohub,2013-04-01 23:42:00,
2013-04-01 19:47:00,77.5,59.5,-100.00,SSW,199,3.0,9.0,54,0.00,,,0.00,0.0,meteohub,2013-04-01 23:47:00,
2013-04-01 19:52:00,77.4,58.8,-100.00,SSW,209,3.0,9.0,53,0.00,,,0.00,0.0,meteohub,2013-04-01 23:52:00,
2013-04-01 19:57:00,77.2,58.3,-100.00,SSW,198,5.0,9.0,52,0.00,,,0.00,0.0,meteohub,2013-04-01 23:57:00,
2013-04-01 20:02:00,77.0,58.1,-100.00,SSW,207,2.0,9.0,52,0.00,,,0.00,0.0,meteohub,2013-04-02 00:02:00,
2013-04-01 20:12:00,77.2,57.7,-100.00,WSW,237,2.0,10.0,51,0.00,,,0.00,0.0,meteohub,2013-04-02 00:12:00,
2013-04-01 20:17:00,77.0,57.6,-100.00,SW,219,7.0,10.0,51,0.00,,,0.00,0.0,meteohub,2013-04-02 00:17:00,
2013-04-01 20:22:00,76.8,56.8,-100.00,SW,225,2.0,10.0,50,0.00,,,0.00,0.0,meteohub,2013-04-02 00:22:00,
2013-04-01 20:32:00,76.6,56.7,-100.00,SW,223,3.0,7.0,50,0.00,,,0.00,0.0,meteohub,2013-04-02 00:32:00,
2013-04-01 20:42:00,76.3,55.8,-100.00,SW,215,0.0,10.0,49,0.00,,,0.00,0.0,meteohub,2013-04-02 00:42:00,
2013-04-01 20:47:00,75.9,54.9,-100.00,SW,225,2.0,10.0,48,0.00,,,0.00,0.0,meteohub,2013-04-02 00:47:00,
2013-04-01 20:52:00,75.9,54.3,-100.00,WSW,257,0.0,7.0,47,0.00,,,0.00,0.0,meteohub,2013-04-02 00:52:00,
2013-04-01 21:02:00,75.7,53.4,-100.00,WSW,241,2.0,6.0,46,0.00,,,0.00,0.0,meteohub,2013-04-02 01:02:00,
2013-04-01 21:07:00,75.6,52.7,-100.00,WSW,246,5.0,6.0,45,0.00,,,0.00,0.0,meteohub,2013-04-02 01:07:00,
2013-04-01 21:17:00,75.4,51.3,-100.00,WSW,248,0.0,6.0,43,0.00,,,0.00,0.0,meteohub,2013-04-02 01:17:00,
2013-04-01 21:22:00,75.2,49.8,-100.00,WSW,248,0.0,6.0,41,0.00,,,0.00,0.0,meteohub,2013-04-02 01:22:00,
2013-04-01 21:27:00,75.0,49.1,-100.00,SW,227,2.0,6.0,40,0.00,,,0.00,0.0,meteohub,2013-04-02 01:27:00,
2013-04-01 21:32:00,75.0,49.6,-100.00,SW,227,0.0,7.0,41,0.00,,,0.00,0.0,meteohub,2013-04-02 01:32:00,
2013-04-01 21:42:00,75.0,48.4,-100.00,SW,227,0.0,6.0,39,0.00,,,0.00,0.0,meteohub,2013-04-02 01:42:00,
2013-04-01 21:47:00,75.0,47.7,-100.00,SW,227,0.0,6.0,38,0.00,,,0.00,0.0,meteohub,2013-04-02 01:47:00,
2013-04-01 21:57:00,74.8,46.0,-100.00,SW,227,0.0,5.0,36,0.00,,,0.00,0.0,meteohub,2013-04-02 01:57:00,
2013-04-01 22:02:00,74.7,46.6,-100.00,SW,227,0.0,5.0,37,0.00,,,0.00,0.0,meteohub,2013-04-02 02:02:00,
2013-04-01 22:07:00,74.5,47.1,-100.00,SW,229,0.0,5.0,38,0.00,,,0.00,0.0,meteohub,2013-04-02 02:07:00,
2013-04-01 22:12:00,74.1,47.7,-100.00,West,265,0.0,5.0,39,0.00,,,0.00,0.0,meteohub,2013-04-02 02:12:00,
2013-04-01 22:17:00,73.9,48.7,-100.00,WNW,298,0.0,5.0,41,0.00,,,0.00,0.0,meteohub,2013-04-02 02:17:00,
2013-04-01 22:22:00,73.9,49.5,-100.00,WNW,296,6.0,6.0,42,0.00,,,0.00,0.0,meteohub,2013-04-02 02:22:00,
2013-04-01 22:27:00,73.8,50.5,-100.00,WNW,292,3.0,10.0,44,0.00,,,0.00,0.0,meteohub,2013-04-02 02:27:00,
2013-04-01 22:32:00,73.6,50.4,-100.00,West,277,0.0,10.0,44,0.00,,,0.00,0.0,meteohub,2013-04-02 02:32:00,
2013-04-01 22:37:00,73.2,50.5,-100.00,WSW,257,0.0,10.0,45,0.00,,,0.00,0.0,meteohub,2013-04-02 02:37:00,
2013-04-01 22:47:00,73.0,51.1,-100.00,WNW,284,0.0,7.0,46,0.00,,,0.00,0.0,meteohub,2013-04-02 02:47:00,
2013-04-01 22:52:00,72.9,50.9,-100.00,West,281,1.0,7.0,46,0.00,,,0.00,0.0,meteohub,2013-04-02 02:52:00,
2013-04-01 23:02:00,72.7,50.2,-100.00,West,277,0.0,7.0,45,0.00,,,0.00,0.0,meteohub,2013-04-02 03:02:00,
2013-04-01 23:07:00,72.5,50.0,-100.00,West,281,0.0,7.0,45,0.00,,,0.00,0.0,meteohub,2013-04-02 03:07:00,
2013-04-01 23:12:00,72.3,49.1,-100.00,West,281,1.0,7.0,44,0.00,,,0.00,0.0,meteohub,2013-04-02 03:12:00,
2013-04-01 23:22:00,72.3,47.3,-100.00,WNW,295,3.0,7.0,41,0.00,,,0.00,0.0,meteohub,2013-04-02 03:22:00,
2013-04-01 23:27:00,72.1,47.1,-100.00,WNW,295,2.0,7.0,41,0.00,,,0.00,0.0,meteohub,2013-04-02 03:27:00,
2013-04-01 23:32:00,72.3,46.0,-100.00,WNW,298,4.0,7.0,39,0.00,,,0.00,0.0,meteohub,2013-04-02 03:32:00,
2013-04-01 23:37:00,72.3,45.3,-100.00,WNW,299,2.0,7.0,38,0.00,,,0.00,0.0,meteohub,2013-04-02 03:37:00,
2013-04-01 23:42:00,72.3,44.6,-100.00,NW,310,3.0,7.0,37,0.00,,,0.00,0.0,meteohub,2013-04-02 03:42:00,
2013-04-01 23:47:00,72.5,43.3,-100.00,NW,310,0.0,7.0,35,0.00,,,0.00,0.0,meteohub,2013-04-02 03:47:00,
2013-04-01 23:52:00,72.7,41.9,-100.00,NW,311,4.0,7.0,33,0.00,,,0.00,0.0,meteohub,2013-04-02 03:52:00,